Weather in Slashchevskaya

Russia / Volgograd Oblast     49°51′28″N   42°20′08″E
temp.,
°C
wind,
m/s
gust,
m/s
humid.,
%
clouds,
%
prec.,
mm/h
press.,
hPa
HPBL,
m
1 march, mon
mon100:00−2nne1297100 0.1 1019106
03:00−2ne129599 0.2 102045
06:00−3nne239389 0.0 1022127
09:00−3ne238590 0.0 1024388
12:00−2n337399 0.0 1025625
15:00−1n336998 0.0 1026742
18:00−2nnw127592 0.0 102654
21:00−3wnw117960 0.0 102722
2 march, tue
tue200:00−3w358516 0.0 1027181
03:00−3wsw4108518 0.0 1026379
06:00−2wsw6117693 0.0 1024655
09:00−1wsw8127596 0.0 1022888
12:00+1wsw91372100 0.0 1019823
15:00+2wsw81374100 0.0 1016887
18:00+1wsw81588100 0.1 1013713
21:00+1w61297100 1.3 1012637
3 march, wed
wed300:000wnw61098100 1.1 1010463
03:000nw4898100 2.3 1009374
06:00−1nnw51093100 0.4 1010498
09:000nnw6107865 0.4 1013830
12:00+1nw7107468 0.1 10141163
15:000nw9126184 0.3 10151507
18:00−2nw7117599 0.1 10171051
21:00−3nw5117474 0.1 1020883
4 march, thu
thu400:00−3wnw4108020 0.0 1020512
03:00−3w498510 0.0 1021359
06:00−1wsw5108386 0.0 1020616
09:00−1w7108167 0.0 1019763
12:00+3wsw8126680 0.0 10171098
15:00+5wsw9135847 0.0 10151271
18:00+2sw716660 0.0 1013480
21:00+2wsw818703 0.0 1013666
5 march, fri
fri500:00+1wsw9177436 0.0 1012659
03:00+1wsw8177963 0.0 1011592
06:00+1wsw7157897 0.0 1011581
09:00+2wsw8137998 0.0 1012598
12:00+3wsw71187100 0.0 1012655
15:00+3wsw51189100 0.0 1013551
18:00+2sw51192100 0.0 1014424
21:00+2wsw4993100 0.1 1014275